www.pogodaiklimat.ru

Погода и климат >> Архив погоды >> Французская Полинезия >> Atuona


ПОГОДА в Atuona

  • Прогноз погоды в Atuona
  • Монитор погоды в Atuona
  • Климат города

АРХИВ ПОГОДЫ в Atuona

Время (UTC), дата Ветер
(напр.,м/с)
 
Видим.   Явления Облачность Т
(С)
Тd
(С)
f
(%)
Тe
(С)
Тes
(С)
Комфортность P
(гПа)
Po
(гПа)
Тmin
(С)
Tmax
(С)
R
(мм)
R24
(мм)
S
(см)
13 18.04 СЗ 2
{3}
н/о н/о +24.9 +23.1 90 +33 +33 очень
душно
1010.2 1004.2
14 18.04 СЗ 2
{5}
н/о н/о +25.0 +23.2 90 +33 +33 очень
душно
1010.3 1004.3
15 18.04 СЗ 1 н/о осадки на расстоянии 9/4 300 м
[Cb cap Ac trans Ci fib]
+24.7 +23.3 92 +33 +33 очень
душно
1011.4 1005.3
17 18.04 СВ 1
{2}
35 км 9/4 600 м
[Cu Sc Ac trans Ci fib]
+29.6 +24.9 76 +42 +44 опасность
перегрева
1012.4 1006.4
16 18.04 СВ 1
{3}
н/о н/о +25.2 +23.6 91 +34 +34 очень
душно
1011.9 1005.9
18 18.04 В 1 н/о 9/4 600 м
[Cu Sc Ac trans Ci fib]
+31.4 +24.8 68 +45 +48 опасность
перегрева
1012.7 1006.8
19 18.04 ЮВ 2
{3}
4000 м осадки на расстоянии 9/5 540 м
[Cu Sc Ac trans Ci fib]
+31.1 +25.5 72 +45 +50 опасность
перегрева
1013.0 1007.1
20 18.04 СЗ 1
{2}
4000 м осадки на расстоянии 9/5 540 м
[Cu Sc Ac trans Cs]
+29.6 +25.4 78 +43 +50 опасность
перегрева
1012.7 1006.7 0.6
21 18.04 ЮЗ 2 н/о н/о +29.9 +24.5 73 +42 +42 опасность
перегрева
1011.6 1005.7 0.6
23 18.04 С 2
{4}
н/о н/о +28.0 +25.0 84 +40 +40 очень
душно
1010.0 1004.0 2
22 18.04 ЮВ 2
{4}
н/о н/о +30.5 +25.1 73 +44 +44 опасность
перегрева
1010.6 1004.7
00 19.04 Ю 2 н/о {ливн. осадки, дождь} н/о +28.0 +25.2 85 +41 +41 опасность
перегрева
1009.5 1003.5 +24.7 6
01 19.04 штиль 0
{3}
8000 м 9/6 450 м
[Cb calv Ac trans Cs]
+27.5 +24.1 82 +38 +40 очень
душно
1009.3 1003.3
02 19.04 З 1
{2}
8000 м 9/6 450 м
[Cb calv Ac trans Cs]
+28.1 +25.3 85 +41 +42 опасность
перегрева
1009.5 1003.5
03 19.04 СЗ 1 н/о н/о +27.3 +25.3 89 +40 +40 очень
душно
1009.8 1003.8
05 19.04 штиль 0
{4}
н/о н/о +25.5 +24.1 92 +35 +35 очень
душно
1010.8 1004.8
04 19.04 С 1
{3}
н/о н/о +26.1 +24.5 91 +37 +37 очень
душно
1010.3 1004.3
06 19.04 СЗ 1 н/о н/о +25.1 +23.9 93 +34 +34 очень
душно
1011.2 1005.2
07 19.04 СЗ 1
{3}
н/о н/о +25.0 +24.0 94 +34 +34 очень
душно
1011.2 1005.2
08 19.04 штиль 0
{3}
н/о н/о +24.9 +23.9 94 +34 +34 очень
душно
1011.0 1005.0
09 19.04 СЗ 1 н/о н/о +24.7 +23.7 94 +34 +34 очень
душно
1010.9 1004.8
11 19.04 СЗ 1
{2}
н/о н/о +24.4 +23.5 95 +33 +33 очень
душно
1010.2 1004.1
10 19.04 З 1
{2}
н/о н/о +24.5 +23.5 94 +33 +33 очень
душно
1010.4 1004.3
12 19.04 штиль 0 н/о н/о +24.6 +23.6 94 +33 +33 очень
душно
1009.9 1003.9 +33.2 +33.2
13 19.04 штиль 0
{3}
н/о н/о +24.5 +23.6 95 +33 +33 очень
душно
1010.0 1003.9
14 19.04 штиль 0
{2}
н/о н/о +24.5 +23.8 96 +33 +33 очень
душно
1010.3 1004.2
15 19.04 З 1 н/о осадки на расстоянии 4/4 300 м
[Cb calv]
+24.5 +23.6 95 +33 +33 очень
душно
1010.8 1004.7
17 19.04 СЗ 1
{2}
20 км осадки на расстоянии 5/5 540 м
[Cu Sc]
+28.1 +24.7 82 +40 +42 очень
душно
1011.6 1005.6
16 19.04 штиль 0
{2}
н/о н/о +24.8 +23.9 95 +34 +34 очень
душно
1011.4 1005.3
18 19.04 Ю 1 н/о н/о +30.1 +25.0 74 +43 +43 опасность
перегрева
1011.9 1006.0
19 19.04 ЮВ 1
{2}
н/о н/о +30.8 +25.6 74 +45 +45 опасность
перегрева
1012.0 1006.1
20 19.04 Ю 2
{3}
30 км 9/4 600 м
[Cu Sc Ci fib]
+30.2 +25.7 77 +45 +54 опасность
перегрева
1011.4 1005.5
21 19.04 ЮВ 1 н/о н/о +32.0 +26.3 72 +48 +48 опасность
перегрева
1010.3 1004.4
23 19.04 ЮВ 4
{6}
н/о н/о +31.5 +25.6 71 +46 +46 опасность
перегрева
1008.6 1002.7
22 19.04 ЮВ 3
{5}
н/о н/о +31.8 +25.6 70 +47 +47 опасность
перегрева
1009.4 1003.5
00 20.04 В 1 н/о н/о +28.6 +24.4 78 +40 +40 очень
душно
1008.4 1002.4 +24.4
01 20.04 СВ 1
{5}
н/о н/о +28.7 +24.9 80 +41 +41 опасность
перегрева
1008.5 1002.5
02 20.04 штиль 0
{2}
н/о н/о +28.1 +24.9 83 +40 +40 очень
душно
1009.0 1003.0
03 20.04 СЗ 1 н/о н/о +27.1 +24.6 86 +38 +38 очень
душно
1009.6 1003.6
05 20.04 С 2
{10}
н/о н/о +25.5 +24.6 95 +36 +36 очень
душно
1011.6 1005.6 6
04 20.04 З 4
{6}
н/о н/о +26.0 +25.1 95 +37 +37 очень
душно
1010.4 1004.4 8
06 20.04 СЗ 1 н/о н/о +25.2 +24.3 95 +35 +35 очень
душно
1011.8 1005.8 15
07 20.04 штиль 0
{3}
н/о н/о +25.4 +24.5 95 +36 +36 очень
душно
1011.9 1005.9 0.2
08 20.04 С 1
{3}
н/о н/о +25.4 +24.5 95 +36 +36 очень
душно
1012.0 1006.0 0.2
09 20.04 штиль 0 н/о н/о +25.2 +24.3 95 +35 +35 очень
душно
1011.2 1005.2 0.4
11 20.04 С 1
{3}
н/о н/о +24.6 +23.6 94 +33 +33 очень
душно
1009.8 1003.8
10 20.04 СЗ 2
{3}
н/о н/о +24.8 +23.9 95 +34 +34 очень
душно
1010.5 1004.5
12 20.04 штиль 0 н/о н/о +24.4 +23.4 94 +33 +33 очень
душно
1009.6 1003.5 +32.1 +32.1 0.4
13 20.04 З 1
{3}
н/о н/о +24.2 +23.0 93 +32 +32 очень
душно
1009.2 1003.1
14 20.04 штиль 0
{2}
н/о н/о +24.4 +23.2 93 +33 +33 очень
душно
1009.4 1003.3
15 20.04 СЗ 1 н/о н/о +24.2 +23.3 95 +32 +32 очень
душно
1010.0 1003.9
17 20.04 В 2
{3}
40 км 6/6 540 м
[Cu med, cong Ci fib]
+27.6 +24.6 84 +39 +41 очень
душно
1011.4 1005.4
16 20.04 СЗ 1
{3}
40 км 6/6 540 м
[Cu med, cong Ci fib]
+24.7 +23.8 95 +34 +34 очень
душно
1010.6 1004.6
18 20.04 Ю 1 н/о 4/4 600 м
[Cu med, cong Ci fib]
+29.2 +25.0 78 +42 +48 опасность
перегрева
1011.6 1005.6
19 20.04 ЮВ 2
{3}
40 км 4/4 700 м
[Cu med, cong Ci fib]
+31.1 +26.1 75 +47 +55 опасность
перегрева
1011.7 1005.8
20 20.04 В 3
{4}
40 км 4/4 700 м
[Cu med, cong Ci sp]
+32.1 +26.4 72 +49 +58 опасность
перегрева
1011.4 1005.5
21 20.04 В 2 8000 м осадки на расстоянии 4/4 300 м
[Cu med, cong Ci sp]
+30.7 +26.0 76 +46 +58 опасность
перегрева
1010.8 1004.9
23 20.04 ЮЗ 1
{4}
30 км осадки на расстоянии 8/8 540 м
[Cu med, cong Ci sp]
+30.0 +24.6 73 +43 +46 опасность
перегрева
1009.1 1003.2
22 20.04 СВ 2
{4}
50 км 4/4 540 м
[Cu med, cong Ci sp]
+29.1 +25.1 79 +42 +53 опасность
перегрева
1010.0 1004.0
00 21.04 ЮВ 2 30 км 8/8 300 м
[Cu med, cong Ci sp]
+29.3 +24.8 77 +42 +44 опасность
перегрева
1008.8 1002.9 +24.1 15
01 21.04 СВ 3
{6}
30 км 8/8 540 м
[Cu Sc Ci sp]
+27.4 +24.1 82 +38 +39 очень
душно
1008.9 1002.9
02 21.04 СЗ 2
{3}
40 км осадки на расстоянии 9/9 540 м
[Cu Sc]
+27.6 +25.0 86 +40 +40 очень
душно
1009.0 1003.0
03 21.04 СВ 1 н/о н/о +26.6 +25.0 91 +38 +38 очень
душно
1009.5 1003.5
05 21.04 СЗ 2
{4}
н/о н/о +26.0 +25.1 95 +37 +37 очень
душно
1010.9 1004.9 0.2
04 21.04 С 2
{4}
н/о н/о +26.1 +25.1 94 +37 +37 очень
душно
1009.9 1003.9
06 21.04 З 1 н/о н/о +26.0 +25.3 96 +38 +38 очень
душно
1011.4 1005.4 2
07 21.04 В 5
{10}
н/о н/о +27.1 +25.3 90 +39 +39 очень
душно
1011.2 1005.2
08 21.04 ЮВ 6
{9}
н/о н/о +27.3 +25.3 89 +40 +40 очень
душно
1011.1 1005.1
09 21.04 В 2 н/о н/о +27.3 +25.5 90 +40 +40 очень
душно
1010.9 1004.9
11 21.04 С 3
{10}
н/о н/о +24.8 +23.8 94 +34 +34 очень
душно
1009.8 1003.8 14
10 21.04 СЗ 1
{5}
н/о н/о +26.7 +25.3 92 +39 +39 очень
душно
1010.1 1004.1
12 21.04 СЗ 1 н/о н/о +24.9 +24.2 96 +34 +34 очень
душно
1009.3 1003.3 +32.6 +32.6 15
13 21.04 СЗ 1
{5}
н/о н/о +25.0 +24.3 96 +35 +35 очень
душно
1009.0 1003.0 0.4
14 21.04 СВ 2
{4}
н/о н/о +25.0 +24.3 96 +35 +35 очень
душно
1009.4 1003.4 0.2
15 21.04 СЗ 1 н/о слабый дождь {ливн. осадки} 9/9 200 м
[Cu Sc]
+24.8 +24.3 97 +34 +34 очень
душно
1009.8 1003.8
17 21.04 штиль 0
{5}
н/о н/о +25.5 +24.8 96 +36 +36 очень
душно
1011.2 1005.2
16 21.04 СВ 2
{4}
30 км в посл. час дождь 9/9 480 м
[Cu Sc]
+25.0 +24.5 97 +35 +35 очень
душно
1010.2 1004.2 4
18 21.04 СВ 1 5000 м осадки на расстоянии {ливн. осадки, дождь} 9/6 300 м
[Cu Sc Ac lent Ci sp]
+26.3 +25.1 93 +38 +40 очень
душно
1011.3 1005.3 14
19 21.04 ЮВ 5
{13}
5000 м слабый дождь 10/10 180 м
[Cu Sc]
+26.1 +24.0 88 +36 +36 очень
душно
1011.5 1005.5 2
20 21.04 СЗ 2
{10}
5000 м в посл. час дождь 9/9 180 м
[Cu Sc]
+25.8 +25.3 97 +37 +39 очень
душно
1010.9 1004.9 15
21 21.04 СЗ 1 н/о слабый дождь 9/9 200 м
[Cu Sc]
+25.7 +25.2 97 +37 +39 очень
душно
1010.0 1004.0
23 21.04 ЮВ 2
{4}
50 км 9/5 540 м
[Cu med, cong Ac lent Cs]
+28.2 +24.6 81 +40 +45 очень
душно
1007.7 1001.7
22 21.04 СВ 2
{4}
40 км в посл. час дождь 9/5 540 м
[Cu med, cong Ac lent Cs]
+26.8 +25.6 93 +39 +45 очень
душно
1008.5 1002.5 0.6
00 22.04 З 1 50 км {дождь} 6/4 300 м
[Cu med, cong Ac lent Cs]
+30.5 +25.1 73 +44 +51 опасность
перегрева
1007.0 1001.1 +24.7 57
01 22.04 В 3
{6}
50 км 5/4 540 м
[Cu med, cong Ac lent Ci sp]
+28.0 +24.6 82 +40 +42 очень
душно
1007.0 1001.0
02 22.04 З 2
{4}
50 км 8/4 540 м
[Cu med, cong Ac lent Ci sp]
+28.7 +25.9 85 +43 +44 опасность
перегрева
1007.6 1001.7
03 22.04 В 1 н/о н/о +27.2 +24.8 87 +39 +39 очень
душно
1008.3 1002.3
05 22.04 СЗ 1
{3}
н/о н/о +26.0 +24.6 92 +37 +37 очень
душно
1009.7 1003.7
04 22.04 СЗ 2
{4}
н/о н/о +26.4 +24.6 90 +37 +37 очень
душно
1009.2 1003.2
06 22.04 С 1 н/о н/о +25.5 +24.3 93 +35 +35 очень
душно
1010.5 1004.5 0.2
07 22.04 СЗ 2
{5}
н/о н/о +25.5 +23.9 91 +35 +35 очень
душно
1010.7 1004.7
08 22.04 СЗ 2
{6}
н/о н/о +25.2 +24.2 94 +35 +35 очень
душно
1010.6 1004.6 4
09 22.04 СВ 2 н/о н/о +25.0 +24.0 94 +34 +34 очень
душно
1010.2 1004.2 4
11 22.04 СЗ 1
{2}
н/о н/о +23.9 +22.5 92 +31 +31 очень
душно
1009.0 1002.9
10 22.04 штиль 0
{2}
н/о н/о +24.3 +22.7 91 +32 +32 очень
душно
1009.9 1003.8
12 22.04 СЗ 1 н/о н/о +24.1 +22.9 93 +32 +32 очень
душно
1008.5 1002.4 +30.6 +30.6 4
13 22.04 штиль 0
{3}
н/о н/о +24.1 +22.7 92 +32 +32 очень
душно
1008.6 1002.5
14 22.04 СВ 2
{5}
н/о н/о +24.5 +23.5 94 +33 +33 очень
душно
1008.8 1002.8 0.6
15 22.04 С 1 н/о в посл. час ливневой дождь 9/4 600 м
[Cu med, cong Ci]
+24.7 +23.5 93 +33 +33 очень
душно
1009.1 1003.1
17 22.04 С 1
{8}
50 км в посл. час ливневой дождь 8/6 630 м
[Cu Sc Ci fib]
+26.0 +24.6 92 +37 +38 очень
душно
1010.8 1004.8 2
16 22.04 штиль 0
{2}
50 км 8/6 600 м
[Cu med, cong Ci fib]
+24.7 +23.5 93 +33 +34 очень
душно
1010.0 1004.0
18 22.04 С 2 н/о слабый ливневой дождь 9/8 600 м
[Cu Sc Ci fib]
+25.5 +24.1 92 +35 +37 очень
душно
1011.2 1005.2 4
19 22.04 С 1
{6}
40 км в посл. час ливневой дождь 4/4 700 м
[Cu med, cong]
+29.6 +25.8 80 +44 +53 опасность
перегрева
1010.8 1004.9 0.6
20 22.04 СЗ 1
{8}
40 км в посл. час ливневой дождь 5/5 700 м
[Cu med, cong]
+29.1 +24.4 76 +41 +51 опасность
перегрева
1010.5 1004.5 3
21 22.04 ЮВ 1 н/о {ливн. осадки, дождь} 3/1 600 м
[Cu med, cong Ci fib]
+30.3 +25.6 76 +45 +63 опасность
перегрева
1009.4 1003.5
23 22.04 СВ 3
{11}
40 км 9/9 630 м
[Cu Sc]
+28.5 +25.3 83 +42 +43 опасность
перегрева
1007.8 1001.8
22 22.04 В 6
{9}
6000 м осадки на расстоянии 3/3 700 м
[Cu med, cong Ci fib]
+29.5 +24.4 74 +41 +47 опасность
перегрева
1008.6 1002.7
00 23.04 В 3 н/о {ливн. осадки, дождь} 5/1 600 м
[Cu med, cong Ac cast Ci fib]
+28.3 +24.3 79 +40 +46 очень
душно
1007.1 1001.1 +23.9 12
01 23.04 В 6
{9}
40 км 5/4 630 м
[Cu Sc Ci fib]
+27.9 +24.5 82 +39 +41 очень
душно
1007.1 1001.1
02 23.04 В 7
{10}
30 км 9/9 630 м
[Cu Sc]
+27.3 +23.8 81 +37 +37 очень
душно
1007.7 1001.7
03 23.04 СЗ 2 н/о н/о +26.1 +24.3 90 +36 +36 очень
душно
1008.3 1002.3 0.2
05 23.04 СВ 1
{4}
н/о н/о +25.5 +24.3 93 +35 +35 очень
душно
1009.9 1003.9
04 23.04 С 1
{6}
н/о н/о +25.7 +24.5 93 +36 +36 очень
душно
1009.3 1003.3
06 23.04 штиль 0 н/о н/о +25.0 +23.8 93 +34 +34 очень
душно
1010.6 1004.6
07 23.04 СЗ 1
{4}
н/о н/о +24.6 +23.0 91 +33 +33 очень
душно
1011.0 1004.9
08 23.04 СВ 1
{3}
н/о н/о +24.6 +23.2 92 +33 +33 очень
душно
1011.0 1004.9
09 23.04 СВ 1 н/о н/о +24.8 +23.9 95 +34 +34 очень
душно
1010.5 1004.5 1
11 23.04 С 1
{7}
н/о н/о +25.0 +24.1 95 +34 +34 очень
душно
1009.6 1003.6 2
10 23.04 СВ 2
{4}
н/о н/о +24.9 +24.0 95 +34 +34 очень
душно
1010.2 1004.2
12 23.04 СЗ 2 н/о н/о +25.1 +24.4 96 +35 +35 очень
душно
1009.0 1003.0 +30.7 +30.7 3
13 23.04 СВ 1
{5}
н/о н/о +25.1 +24.2 95 +35 +35 очень
душно
1008.8 1002.8
14 23.04 С 1
{2}
н/о н/о +25.2 +24.5 96 +35 +35 очень
душно
1009.2 1003.2
15 23.04 С 1 н/о осадки на расстоянии 4/3 300 м
[Cu med, cong Ci fib]
+25.2 +24.2 94 +35 +35 очень
душно
1009.9 1003.9
17 23.04 СВ 2
{4}
30 км 8/5 630 м
[Cu med, cong Ci fib]
+27.2 +25.4 90 +40 +41 очень
душно
1011.2 1005.2
16 23.04 СЗ 2
{4}
30 км в посл. час ливневой дождь 9/3 600 м
[Cu med, cong Ci]
+25.6 +24.7 95 +36 +36 очень
душно
1010.7 1004.7 0.2
18 23.04 В 2 н/о 5/4 600 м
[Cu med, cong Ci fib]
+29.5 +25.0 77 +43 +47 опасность
перегрева
1011.8 1005.8 0.2
19 23.04 В 4
{8}
30 км 4/3 800 м
[Cu med, cong Ci fib]
+30.0 +24.2 71 +42 +47 опасность
перегрева
1011.6 1005.7
20 23.04 В 5
{10}
30 км 4/3 800 м
[Cu med, cong Ci fib]
+29.6 +24.5 74 +42 +48 опасность
перегрева
1011.2 1005.2
21 23.04 В 2 н/о 4/3 600 м
[Cu med, cong Ci fib]
+29.7 +23.2 68 +40 +52 опасность
солнечного
удара
1010.3 1004.3
23 23.04 В 4
{7}
30 км 4/3 750 м
[Cu med, cong Ci fib]
+30.0 +23.9 70 +41 +48 опасность
перегрева
1008.5 1002.6
22 23.04 В 4
{8}
30 км 4/3 750 м
[Cu med, cong Ci fib]
+29.5 +23.7 71 +40 +49 очень
душно
1009.3 1003.4
00 24.04 В 2 н/о 4/3 600 м
[Cu med, cong Ci fib]
+29.0 +23.4 72 +39 +46 очень
душно
1007.9 1002.0 +24.4 3
01 24.04 В 3
{7}
30 км 4/3 750 м
[Cu med, cong Ci fib]
+28.8 +23.7 74 +39 +42 очень
душно
1008.0 1002.0
02 24.04 В 4
{7}
30 км 4/3 750 м
[Cu med, cong Ci fib]
+28.2 +22.9 73 +38 +38 очень
душно
1008.5 1002.5
03 24.04 В 2 н/о н/о +27.9 +23.1 75 +37 +37 очень
душно
1009.2 1003.2
05 24.04 В 2
{6}
н/о н/о +26.4 +23.7 85 +36 +36 очень
душно
1010.6 1004.6
04 24.04 СЗ 1
{5}
н/о н/о +27.2 +23.0 78 +36 +36 очень
душно
1009.8 1003.8
06 24.04 В 2 н/о н/о +26.2 +24.2 89 +36 +36 очень
душно
1011.3 1005.3 1
07 24.04 СВ 2
{8}
н/о н/о +26.4 +24.1 87 +37 +37 очень
душно
1011.6 1005.6
08 24.04 СЗ 2
{5}
н/о н/о +25.9 +24.1 90 +36 +36 очень
душно
1011.4 1005.4
09 24.04 СЗ 1 н/о н/о +25.6 +24.2 92 +35 +35 очень
душно
1011.1 1005.1
11 24.04 С 2
{6}
н/о н/о +24.9 +23.5 92 +34 +34 очень
душно
1010.0 1004.0 0.2
10 24.04 СЗ 1
{2}
н/о н/о +25.4 +24.0 92 +35 +35 очень
душно
1010.6 1004.6
12 24.04 СВ 2 н/о н/о +25.2 +24.3 95 +35 +35 очень
душно
1009.3 1003.3 +30.3 +30.3 0.4
13 24.04 СВ 1
{5}
н/о н/о +25.2 +24.2 94 +35 +35 очень
душно
1009.3 1003.3
14 24.04 СВ 2
{5}
н/о н/о +25.2 +24.2 94 +35 +35 очень
душно
1009.4 1003.4
15 24.04 С 1 н/о н/о +25.2 +24.3 95 +35 +35 очень
душно
1010.1 1004.1
17 24.04 В 5
{10}
5000 м в посл. час ливневой дождь 9/9 480 м
[Cu Sc]
+25.4 +23.6 90 +35 +35 очень
душно
1011.8 1005.8 1
16 24.04 С 1
{3}
н/о н/о +25.3 +24.1 93 +35 +35 очень
душно
1010.8 1004.8
18 24.04 С 1 н/о в посл. час ливневой дождь 9/9 300 м
[Cu Sc]
+27.6 +24.2 82 +39 +40 очень
душно
1012.3 1006.3 2
19 24.04 СЗ 2
{13}
н/о н/о +27.7 +25.1 86 +40 +40 очень
душно
1012.6 1006.6 3
20 24.04 Ю 2
{7}
5000 м осадки на расстоянии 9/9 480 м
[Cu Sc]
+29.4 +24.7 76 +42 +43 опасность
перегрева
1012.2 1006.2
21 24.04 З 2 н/о н/о +29.0 +26.6 87 +45 +45 опасность
перегрева
1011.3 1005.3 4
23 24.04 В 5
{11}
н/о н/о +28.7 +23.6 74 +39 +39 очень
душно
1009.7 1003.7
22 24.04 В 5
{8}
н/о н/о +29.3 +24.4 75 +41 +41 опасность
перегрева
1010.4 1004.4
00 25.04 ЮЗ 1 н/о {ливн. осадки, дождь} н/о +28.9 +24.9 79 +41 +41 опасность
перегрева
1009.2 1003.2 +24.5
01 25.04 ЮЗ 1
{9}
н/о н/о +28.8 +24.1 76 +40 +40 очень
душно
1009.0 1003.0
02 25.04 В 2
{5}
н/о н/о +28.1 +24.1 79 +39 +39 очень
душно
1009.5 1003.5
03 25.04 СЗ 1 н/о н/о +26.9 +24.6 87 +38 +38 очень
душно
1010.1 1004.1
05 25.04 СЗ 1
{4}
н/о н/о +26.2 +24.2 89 +36 +36 очень
душно
1011.8 1005.8
04 25.04 С 2
{5}
н/о н/о +26.3 +24.5 90 +37 +37 очень
душно
1010.9 1004.9
06 25.04 ЮВ 1 н/о н/о +27.0 +23.7 82 +37 +37 очень
душно
1012.4 1006.4
07 25.04 ЮЗ 1
{7}
н/о н/о +27.4 +24.1 82 +38 +38 очень
душно
1012.7 1006.7
08 25.04 В 4
{8}
н/о н/о +27.7 +23.3 77 +37 +37 очень
душно
1012.6 1006.6
09 25.04 В 3 н/о н/о +28.0 +24.0 79 +39 +39 очень
душно
1012.4 1006.4
11 25.04 СВ 4
{6}
н/о н/о +24.6 +23.7 95 +33 +33 очень
душно
1011.6 1005.5
10 25.04 СЗ 5
{19}
н/о н/о +23.9 +23.0 95 +32 +32 очень
душно
1012.4 1006.3 19
12 25.04 СЗ 2 н/о н/о +24.7 +23.8 95 +34 +34 очень
душно
1011.0 1004.9 +30.2 +30.2 20
13 25.04 ЮВ 3
{9}
н/о н/о +25.3 +24.1 93 +35 +35 очень
душно
1010.7 1004.7 0.8

 

Местоположение метеостанции Atuona (Французская Полинезия): широта -9.80 долгота -139.00 высота над уровнем моря 53 м.

В архиве по умолчанию представлена погода в Atuona за последнюю неделю. Архивные данные за месяц целиком и за предыдущие месяцы, начиная с января 2011 года, Вы можете получить, выбрав интересующий диапазон дат из раскрывающегося списка и нажав кнопку "Ввод!".

Внимание! Время в таблицах - всемирное. Для получения местного времени необходимо прибавить поправку, которая в Atuona равна -10 ч.

Смотрите также архив погоды в соседних городах и на ближайших метеорологических станциях:

Погода в Takaroa (Французская Полинезия) (834 км)
Погода в Hao (Французская Полинезия) (941 км)
Погода в Hereheretue (Французская Полинезия) (1295 км)
Погода в Tahiti-Faaa (Французская Полинезия) (1433 км)
Погода в Rikitea (Французская Полинезия) (1545 км)
Погода в Bora-Bora Airport (Французская Полинезия) (1560 км)
Погода в Tubuai (Французская Полинезия) (1869 км)
Погода в Pitcairn Island C (Питкерн) (1942 км)
Погода в Rapa (Французская Полинезия) (2057 км)
Погода в Penrhyn (Кука Острова) (2086 км)

Пояснения к столбцам:

Ветер - указаны скорость ветра в м/с - средняя за 10 мин, порывы в срок и между сроками (в фигурных скобках) и направление, откуда дует ветер: С - северный, СВ - северо-восточный, В - восточный, ЮВ - юго-восточный, Ю - южный, ЮЗ - юго-западный, З - западный, СЗ - северо-западный.
Видимость - горизонтальная дальность видимости в метрах или километрах. При видимости от 1 до 10 км при отсутствии осадков обычно наблюдается дымка, при ухудшении видимости до 1 км и менее - туман. В сухую погоду видимость может ухудшаться дымом, пылью или мглою.
Явления - указаны атмосферные явления, наблюдавшиеся в срок или в последний час перед сроком; фигурными скобками обозначены явления, наблюдавшиеся между сроками (за 1-3 часа до срока); квадратными скобками обозначены град или гололедные отложения с указанием их диаметра в мм.
Облачность - указаны через наклонную черту общая и нижняя облачность в баллах и высота нижней границы облаков в метрах; квадратными скобками обозначены формы облаков: Ci - перистые, Cs - перисто-слоистые, Cc - перисто-кучевые, Ac - высококучевые, As - высокослоистые, Sc - слоисто-кучевые, Ns - слоисто-дождевые, Cu - кучевые, Cb - кучево-дождевые. Подробнее классификацию облаков см. в Атласе облаков (PDF).
T - Температура воздуха - температура, измеренная на высоте 2 м над землей.
Td - Температура точки росы - температура, при понижении до которой содержащийся в воздухе водяной пар достигнет насыщения.
f - Относительная влажность воздуха - влажноcть воздуха, измеренная на высоте 2 м над землей.
Te - Эффективная температура - температура, которую ощущает одетый по сезону человек в тени. Характеристика душности погоды. При расчете учитывается влияние влажности воздуха и скорости ветра на теплоощущения человека.
Tes - Эффективная температура на солнце - температура, которую ощущает человек, с поправкой на солнечный нагрев. Характеристика знойности погоды. Зависит от высоты солнца над горизонтом, облачности и скорости ветра. Ночью, в пасмурную погоду, а также при ветре 12 м/с и более поправка равна нулю.
P - Атмосферное давление - приведенное к уровню моря атмосферное давление.
Po - Атмосферное давление - измеренное на уровне метеостанции атмосферное давление.
Tmin - Минимальная температура - минимум температуры воздуха на высоте 2 м над землей.
Tmax - Максимальная температура - максимум температуры воздуха на высоте 2 м над землей.
R - Количество осадков - Количество выпавших осадков за период времени, мм. При наведении курсора мыши на число - период времени, за который выпало указанное количество осадков.
R24 - Количество осадков - Количество выпавших осадков за 24 часа, мм.
S - Снежный покров - Высота снежного покрова, см. При наведении курсора мыши на число - состояние снежного покрова и степень покрытия местности в баллах.